Location: DARK SKY Beskydy - Park tmavé oblohy, www.darkskybeskydy.cz
(49.4926°N, 18.5016°E)
Time: 15:33:44
(UTC+02:00)

ACS3 Solar Sail - Pass Details

Date: 19 June 2024
Orbit: 992 x 1023 km, 97.4° (Epoch: 11 July)

Event Time Altitude Azimuth Distance (km) Brightness Sun altitude
Exits shadow 23:16:37 - 204° (SSW) 2,999 6.9 -14.3°
Reaches altitude 10° 23:17:20 10° 207° (SSW) 2,764 6.8 -14.4°
Maximum altitude 23:22:47 32° 269° (W) 1,658 6.2 -14.7°
Drops below altitude 10° 23:28:16 10° 330° (NNW) 2,768 8.5 -15.0°
Sets 23:31:05 0° 341° (NNW) 3,721 9.8 -15.1°
